timestamp,surface_pressure_avg,surface_temp_avg,battery_voltage,lat,long
2023-07-24 00:09:01+00:00,246.6098,19.29,12.57,47.84626,-54.09684
2023-07-24 00:19:00+00:00,248.2998,19.56,12.57,47.84626,-54.09684
2023-07-24 00:29:00+00:00,251.3681,19.5,12.57,47.84626,-54.09684
2023-07-24 00:39:00+00:00,259.3247,19.69,12.57,47.84626,-54.09684
2023-07-24 00:49:00+00:00,264.1998,19.9,12.57,47.84626,-54.09684
2023-07-24 00:59:00+00:00,265.0864,20.08,12.57,47.84626,-54.09684
2023-07-24 01:09:00+00:00,267.7281,20.1,12.57,47.84626,-54.09684
2023-07-24 01:19:00+00:00,273.9481,19.8,12.57,47.84626,-54.09684
2023-07-24 01:29:00+00:00,277.9997,19.97,12.57,47.84626,-54.09684
2023-07-24 01:39:00+00:00,283.058,20.11,12.57,47.84626,-54.09684
2023-07-24 01:49:00+00:00,290.7331,20.24,12.57,47.84626,-54.09684
2023-07-24 01:59:00+00:00,298.6913,20.41,12.57,47.84626,-54.09684
2023-07-24 02:09:00+00:00,303.4597,20.61,12.57,47.84626,-54.09684
2023-07-24 02:19:01+00:00,309.2063,20.8,12.57,47.84626,-54.09684
2023-07-24 02:29:01+00:00,313.603,20.65,12.57,47.84626,-54.09684
2023-07-24 02:39:01+00:00,314.3362,20.76,12.57,47.84626,-54.09684
2023-07-24 02:49:01+00:00,314.9197,20.5,12.57,47.84626,-54.09684
2023-07-24 02:59:01+00:00,318.4213,20.42,12.57,47.84626,-54.09684
2023-07-24 03:09:01+00:00,320.4929,20.5,12.57,47.84626,-54.09684
2023-07-24 03:19:00+00:00,319.5464,20.36,12.57,47.84626,-54.09684
2023-07-24 03:29:00+00:00,319.6213,19.83,12.57,47.84626,-54.09684
2023-07-24 03:39:00+00:00,323.2047,19.89,12.57,47.84626,-54.09684
2023-07-24 03:49:00+00:00,327.338,20.1,12.57,47.84626,-54.09684
2023-07-24 03:59:00+00:00,328.458,20.39,12.57,47.84626,-54.09684
2023-07-24 04:09:00+00:00,328.2480000000001,20.59,12.57,47.84626,-54.09684
2023-07-24 04:19:00+00:00,326.8297,20.6,12.57,47.84626,-54.09684
2023-07-24 04:29:00+00:00,324.5813,20.67,12.57,47.84626,-54.09684
2023-07-24 04:39:00+00:00,320.8147,20.7,12.57,47.84626,-54.09684
2023-07-24 04:49:00+00:00,316.153,20.73,12.57,47.84626,-54.09684
2023-07-24 04:59:00+00:00,311.9863,20.8,12.57,47.84626,-54.09684
2023-07-24 05:09:00+00:00,310.508,20.89,12.57,47.84626,-54.09684
2023-07-24 05:19:00+00:00,311.868,20.97,12.57,47.84626,-54.09684
2023-07-24 05:29:00+00:00,310.3013,21.08,12.57,47.84626,-54.09684
2023-07-24 05:39:00+00:00,306.533,21.2,12.57,47.84626,-54.09684
2023-07-24 05:49:00+00:00,301.7197,21.29,12.57,47.84626,-54.09684
2023-07-24 05:59:00+00:00,297.4696,21.32,12.57,47.84626,-54.09684
2023-07-24 06:09:00+00:00,293.4614,21.3,12.57,47.84626,-54.09684
2023-07-24 06:19:00+00:00,288.8447,21.32,12.57,47.84626,-54.09684
2023-07-24 06:29:00+00:00,284.5096,21.38,12.57,47.84626,-54.09684
2023-07-24 06:39:00+00:00,277.0064,21.39,12.57,47.84626,-54.09684
2023-07-24 06:49:00+00:00,267.2814,21.4,12.57,47.84626,-54.09684
2023-07-24 06:59:00+00:00,259.1898,21.4,12.57,47.84626,-54.09684
2023-07-24 07:09:00+00:00,252.6164,21.4,12.57,47.84626,-54.09684
2023-07-24 07:19:00+00:00,245.0314,21.39,12.57,47.84626,-54.09684
2023-07-24 07:29:00+00:00,239.9448,21.38,12.57,47.84626,-54.09684
2023-07-24 07:39:00+00:00,232.2531,21.33,12.57,47.84626,-54.09684
2023-07-24 07:49:00+00:00,225.9431,21.3,12.57,47.84626,-54.09684
2023-07-24 07:59:00+00:00,222.4414,21.3,12.57,47.84626,-54.09684
2023-07-24 08:09:00+00:00,218.7448,21.3,12.57,47.84626,-54.09684
2023-07-24 08:19:00+00:00,212.8781,21.3,12.57,47.84626,-54.09684
2023-07-24 08:29:00+00:00,212.2565,21.3,12.57,47.84626,-54.09684
2023-07-24 08:39:00+00:00,211.2164,21.3,12.57,47.84626,-54.09684
2023-07-24 08:49:00+00:00,206.8281,21.3,12.57,47.84626,-54.09684
2023-07-24 08:59:00+00:00,202.0648,21.3,12.57,47.84626,-54.09684
2023-07-24 09:09:00+00:00,201.7231,21.3,12.57,47.84626,-54.09684
2023-07-24 09:19:00+00:00,204.1048,21.3,12.57,47.84626,-54.09684
2023-07-24 09:29:00+00:00,203.8714,21.3,12.57,47.84626,-54.09684
2023-07-24 09:39:00+00:00,203.3798,21.3,12.57,47.84626,-54.09684
2023-07-24 09:49:00+00:00,206.4681,21.3,12.57,47.84626,-54.09684
2023-07-24 09:59:00+00:00,209.7998,21.3,12.57,47.84626,-54.09684
2023-07-24 10:09:00+00:00,212.6014,21.37,12.57,47.84626,-54.09684
2023-07-24 10:19:00+00:00,214.6197,21.4,12.57,47.84626,-54.09684
2023-07-24 10:29:00+00:00,215.3914,21.4,12.57,47.84626,-54.09684
2023-07-24 10:39:00+00:00,218.5664,21.4,12.57,47.84626,-54.09684
2023-07-24 10:49:00+00:00,221.5498,21.32,12.57,47.84626,-54.09684
2023-07-24 10:59:00+00:00,224.6048,21.3,12.57,47.84626,-54.09684
2023-07-24 11:09:00+00:00,226.4531,21.29,12.57,47.84626,-54.09684
2023-07-24 11:19:00+00:00,228.9381,21.39,12.57,47.84626,-54.09684
2023-07-24 11:29:00+00:00,232.4364,21.39,12.57,47.84626,-54.09684
2023-07-24 11:39:00+00:00,236.6348,21.39,12.57,47.84626,-54.09684
2023-07-24 11:49:00+00:00,240.6148,21.37,12.57,47.84626,-54.09684
2023-07-24 11:59:00+00:00,244.9781,21.3,12.57,47.84626,-54.09684
2023-07-24 12:09:00+00:00,247.4064,21.3,12.57,47.84626,-54.09684
2023-07-24 12:19:00+00:00,249.7381,21.29,12.57,47.84626,-54.09684
2023-07-24 12:29:00+00:00,252.9131,21.28,12.57,47.84626,-54.09684
2023-07-24 12:39:00+00:00,259.9881,21.3,12.57,47.84626,-54.09684
2023-07-24 12:49:00+00:00,262.9514,21.31,12.57,47.84626,-54.09684
2023-07-24 12:59:00+00:00,265.0497,21.4,12.57,47.84626,-54.09684
2023-07-24 13:09:00+00:00,268.9164,21.49,12.57,47.84626,-54.09684
2023-07-24 13:19:00+00:00,275.858,21.5,12.65,47.84626,-54.09684
2023-07-24 13:29:00+00:00,279.4547,21.26,12.65,47.84626,-54.09684
2023-07-24 13:39:00+00:00,283.2546,21.37,12.65,47.84626,-54.09684
2023-07-24 13:49:00+00:00,289.8597,21.4,12.65,47.84626,-54.09684
2023-07-24 13:59:00+00:00,297.3563,21.4,12.65,47.84626,-54.09684
2023-07-24 14:09:00+00:00,299.888,21.4,12.65,47.84626,-54.09684
2023-07-24 14:19:00+00:00,303.1647,21.44,12.65,47.84626,-54.09684
2023-07-24 14:29:00+00:00,308.1797,21.48,12.65,47.84626,-54.09684
2023-07-24 14:39:00+00:00,312.0997,21.5,12.65,47.84626,-54.09684
2023-07-24 14:49:00+00:00,312.428,21.5,12.65,47.84626,-54.09684
2023-07-24 14:59:00+00:00,311.903,21.3,12.65,47.84626,-54.09684
2023-07-24 15:09:00+00:00,312.448,21.26,12.65,47.84626,-54.09684
2023-07-24 15:19:00+00:00,315.1863,21.29,12.57,47.84626,-54.09684
2023-07-24 15:29:00+00:00,315.2847,21.31,12.57,47.84626,-54.09684
2023-07-24 15:39:00+00:00,314.623,21.38,12.57,47.84626,-54.09684
2023-07-24 15:49:00+00:00,316.8497,21.36,12.57,47.84626,-54.09684
2023-07-24 15:59:00+00:00,317.933,21.4,12.57,47.84626,-54.09684
2023-07-24 16:09:00+00:00,317.1063,21.44,12.57,47.84626,-54.09684
2023-07-24 16:19:00+00:00,318.328,21.5,12.81,47.84626,-54.09684
2023-07-24 16:29:00+00:00,320.6097,21.55,12.81,47.84626,-54.09684
2023-07-24 16:39:00+00:00,321.9429,21.58,12.81,47.84626,-54.09684
2023-07-24 16:49:00+00:00,320.5863,21.58,12.81,47.84626,-54.09684
2023-07-24 16:59:00+00:00,319.0179,21.59,12.81,47.84626,-54.09684
2023-07-24 17:09:00+00:00,318.4763,21.6,12.81,47.84626,-54.09684
2023-07-24 17:19:00+00:00,317.2664,21.62,12.81,47.84626,-54.09684
2023-07-24 17:29:00+00:00,312.7547,21.67,12.81,47.84626,-54.09684
2023-07-24 17:39:00+00:00,308.1847,21.7,12.81,47.84626,-54.09684
2023-07-24 17:49:00+00:00,305.8596,21.7,12.81,47.84626,-54.09684
2023-07-24 17:59:00+00:00,304.0647,21.7,12.81,47.84626,-54.09684
2023-07-24 18:09:00+00:00,299.8713,21.78,12.81,47.84626,-54.09684
2023-07-24 18:19:00+00:00,293.038,21.8,12.89,47.84626,-54.09684
2023-07-24 18:29:00+00:00,287.5563,21.82,12.89,47.84626,-54.09684
2023-07-24 18:39:00+00:00,282.1948,21.8,12.89,47.84626,-54.09684
2023-07-24 18:49:00+00:00,275.6614,21.85,12.89,47.84626,-54.09684
2023-07-24 18:59:00+00:00,268.1064,21.88,12.89,47.84626,-54.09684
2023-07-24 19:09:00+00:00,265.4114,21.89,12.89,47.84626,-54.09684
2023-07-24 19:19:00+00:00,260.0681,21.89,12.81,47.84626,-54.09684
2023-07-24 19:29:00+00:00,253.5414,21.9,12.81,47.84626,-54.09684
2023-07-24 19:39:00+00:00,248.1714,21.9,12.81,47.84626,-54.09684
2023-07-24 19:49:00+00:00,245.458,21.9,12.81,47.84626,-54.09684
2023-07-24 19:59:00+00:00,240.4281,21.9,12.81,47.84626,-54.09684
2023-07-24 20:09:00+00:00,234.6281,21.9,12.81,47.84626,-54.09684
2023-07-24 20:19:01+00:00,230.1263,21.9,12.73,47.84626,-54.09684
2023-07-24 20:29:01+00:00,224.7698,21.93,12.73,47.84626,-54.09684
2023-07-24 20:39:01+00:00,218.2731,21.97,12.73,47.84626,-54.09684
2023-07-24 20:49:01+00:00,212.1681,21.99,12.73,47.84626,-54.09684
2023-07-24 20:59:01+00:00,209.0064,21.99,12.73,47.84626,-54.09684
2023-07-24 21:09:01+00:00,205.7214,21.99,12.73,47.84626,-54.09684
2023-07-24 21:19:00+00:00,203.5481,22.0,12.65,47.84626,-54.09684
2023-07-24 21:29:00+00:00,205.2148,21.99,12.65,47.84626,-54.09684
2023-07-24 21:39:00+00:00,206.8031,21.9,12.65,47.84626,-54.09684
2023-07-24 21:49:00+00:00,206.2781,21.9,12.65,47.84626,-54.09684
2023-07-24 21:59:00+00:00,208.7265,21.88,12.65,47.84626,-54.09684
2023-07-24 22:09:00+00:00,212.2964,21.89,12.65,47.84626,-54.09684
2023-07-24 22:19:00+00:00,213.9831,21.9,12.57,47.84626,-54.09684
2023-07-24 22:29:00+00:00,216.6381,21.9,12.57,47.84626,-54.09684
2023-07-24 22:39:00+00:00,220.1698,21.89,12.57,47.84626,-54.09684
2023-07-24 22:49:00+00:00,224.4497,21.89,12.57,47.84626,-54.09684
2023-07-24 22:59:00+00:00,227.2898,21.89,12.57,47.84626,-54.09684
2023-07-24 23:09:00+00:00,230.7681,21.9,12.57,47.84626,-54.09684
2023-07-24 23:19:00+00:00,234.3047,21.9,12.57,47.84626,-54.09684
2023-07-24 23:29:00+00:00,237.088,21.89,12.57,47.84626,-54.09684
2023-07-24 23:39:00+00:00,236.7931,21.89,12.57,47.84626,-54.09684
2023-07-24 23:49:00+00:00,236.6781,21.88,12.57,47.84626,-54.09684
2023-07-24 23:59:00+00:00,237.3281,21.87,12.57,47.84626,-54.09684
